When you browse on this site, cookies collect data to enhance your experience and personalize the content and advertising you see.
Visit our Privacy Policy to learn more. By continuing to use the site, you agree to this use of cookies and data.
  • In Portugal
  • List of Countries
  • For 7 days
  • Water Temperature
  • Satellite Maps
  • Weather Map
  • Weather Widgets
  • user-avatar
    Login

    Hourly Weather Ozery

    Today, 22 July, Monday

    Time Temperature Precipitation Wind Pressure Humidity
    00:00 +16°C° 0.3 mm 2 mps 745 mmHg 85%
    01:00 +16°C° 0.3 mm 2 mps 745 mmHg 87%
    02:00 +16°C° 0.3 mm 2 mps 745 mmHg 89%
    03:00 +16°C° 0.1 mm 2 mps 745 mmHg 91%
    04:00 +16°C° 0.1 mm 2 mps 744 mmHg 93%
    05:00 +16°C° 0.1 mm 3 mps 744 mmHg 94%
    06:00 +17°C° 0.1 mm 3 mps 744 mmHg 92%
    07:00 +18°C° 0.1 mm 3 mps 744 mmHg 90%
    08:00 +19°C° 0.1 mm 3 mps 744 mmHg 88%
    09:00 +20°C° 1.4 mm 3 mps 744 mmHg 89%
    10:00 +20°C° 1.4 mm 3 mps 744 mmHg 89%
    11:00 +20°C° 1.4 mm 3 mps 743 mmHg 89%
    12:00 +19°C° 1.7 mm 2 mps 743 mmHg 91%
    13:00 +19°C° 1.7 mm 2 mps 743 mmHg 93%
    14:00 +19°C° 1.7 mm 1 mps 743 mmHg 95%
    15:00 +19°C° 1.2 mm 1 mps 743 mmHg 94%
    16:00 +19°C° 1.2 mm 1 mps 743 mmHg 92%
    17:00 +20°C° 1.2 mm 1 mps 743 mmHg 91%
    18:00 +19°C° 0.3 mm 1 mps 742 mmHg 92%
    19:00 +18°C° 0.3 mm 2 mps 742 mmHg 93%
    20:00 +17°C° 0.3 mm 2 mps 742 mmHg 95%
    21:00 +17°C° 0 mm 2 mps 741 mmHg 96%
    22:00 +16°C° 0 mm 3 mps 741 mmHg 96%
    23:00 +16°C° 0 mm 3 mps 741 mmHg 97%

    Tomorrow, 23 July, Tuesday

    Time Temperature Precipitation Wind Pressure Humidity
    00:00 +15°C° 0 mm 4 mps 741 mmHg 97%
    01:00 +14°C° 0 mm 4 mps 741 mmHg 97%
    02:00 +14°C° 0 mm 4 mps 741 mmHg 97%
    03:00 +14°C° 0 mm 4 mps 741 mmHg 97%
    04:00 +14°C° 0 mm 4 mps 741 mmHg 96%
    05:00 +15°C° 0 mm 5 mps 741 mmHg 96%
    06:00 +15°C° 0 mm 4 mps 741 mmHg 95%
    07:00 +15°C° 0 mm 4 mps 741 mmHg 94%
    08:00 +17°C° 0 mm 4 mps 741 mmHg 92%
    09:00 +17°C° 0.3 mm 4 mps 741 mmHg 93%
    10:00 +17°C° 0.3 mm 4 mps 741 mmHg 94%
    11:00 +17°C° 0.3 mm 4 mps 741 mmHg 94%
    12:00 +17°C° 0.1 mm 4 mps 741 mmHg 93%
    13:00 +17°C° 0.1 mm 4 mps 741 mmHg 91%
    14:00 +18°C° 0.1 mm 4 mps 741 mmHg 89%
    15:00 +19°C° 0.3 mm 4 mps 741 mmHg 87%
    16:00 +19°C° 0.3 mm 4 mps 741 mmHg 85%
    17:00 +20°C° 0.3 mm 4 mps 742 mmHg 83%
    18:00 +19°C° 0.1 mm 4 mps 741 mmHg 86%
    19:00 +18°C° 0.1 mm 3 mps 741 mmHg 90%
    20:00 +17°C° 0.1 mm 3 mps 741 mmHg 94%
    21:00 +16°C° 0 mm 3 mps 741 mmHg 94%
    22:00 +16°C° 0 mm 3 mps 742 mmHg 95%
    23:00 +14°C° 0 mm 3 mps 742 mmHg 95%

    Day after tomorrow, 24 July, Wednesday

    Time Temperature Precipitation Wind Pressure Humidity
    00:00 +14°C° 0 mm 3 mps 742 mmHg 95%
    01:00 +14°C° 0 mm 3 mps 742 mmHg 95%
    02:00 +13°C° 0 mm 4 mps 742 mmHg 95%
    03:00 +13°C° 0 mm 4 mps 742 mmHg 95%
    04:00 +13°C° 0 mm 4 mps 742 mmHg 95%
    05:00 +13°C° 0 mm 3 mps 742 mmHg 95%
    06:00 +14°C° 0 mm 4 mps 743 mmHg 91%
    07:00 +17°C° 0 mm 4 mps 743 mmHg 87%
    08:00 +17°C° 0 mm 5 mps 743 mmHg 83%
    09:00 +20°C° 0 mm 5 mps 743 mmHg 78%
    10:00 +21°C° 0 mm 5 mps 743 mmHg 73%
    11:00 +22°C° 0 mm 5 mps 743 mmHg 68%
    12:00 +22°C° 0.2 mm 5 mps 743 mmHg 66%
    13:00 +23°C° 0.2 mm 6 mps 744 mmHg 65%
    14:00 +23°C° 0.2 mm 6 mps 744 mmHg 64%
    15:00 +22°C° 0.3 mm 5 mps 744 mmHg 68%
    16:00 +22°C° 0.3 mm 4 mps 744 mmHg 72%
    17:00 +21°C° 0.3 mm 3 mps 744 mmHg 76%
    18:00 +20°C° 0.1 mm 3 mps 744 mmHg 79%
    19:00 +19°C° 0.1 mm 3 mps 744 mmHg 81%
    20:00 +18°C° 0.1 mm 3 mps 744 mmHg 83%
    21:00 +17°C° 0 mm 3 mps 744 mmHg 83%
    22:00 +17°C° 0 mm 4 mps 744 mmHg 84%
    23:00 +15°C° 0 mm 4 mps 744 mmHg 84%

    25 July, Thursday

    Time Temperature Precipitation Wind Pressure Humidity
    00:00 +15°C° 0 mm 4 mps 744 mmHg 85%
    01:00 +14°C° 0 mm 4 mps 744 mmHg 86%
    02:00 +14°C° 0 mm 4 mps 744 mmHg 86%
    03:00 +14°C° 0 mm 4 mps 745 mmHg 87%
    04:00 +14°C° 0 mm 4 mps 745 mmHg 89%
    05:00 +13°C° 0 mm 4 mps 745 mmHg 90%
    06:00 +15°C° 0 mm 5 mps 745 mmHg 87%
    07:00 +16°C° 0 mm 5 mps 745 mmHg 84%
    08:00 +19°C° 0 mm 6 mps 746 mmHg 81%
    09:00 +20°C° 0 mm 6 mps 746 mmHg 79%
    10:00 +21°C° 0 mm 5 mps 746 mmHg 77%
    11:00 +22°C° 0 mm 5 mps 746 mmHg 75%
    12:00 +23°C° 0 mm 5 mps 746 mmHg 73%
    13:00 +25°C° 0 mm 5 mps 746 mmHg 70%
    14:00 +26°C° 0 mm 6 mps 746 mmHg 68%
    15:00 +26°C° 0.1 mm 5 mps 746 mmHg 70%
    16:00 +25°C° 0.1 mm 5 mps 746 mmHg 72%
    17:00 +25°C° 0.1 mm 4 mps 746 mmHg 73%
    18:00 +23°C° 0 mm 4 mps 747 mmHg 77%
    19:00 +21°C° 0 mm 4 mps 747 mmHg 80%
    20:00 +20°C° 0 mm 3 mps 747 mmHg 83%
    21:00 +19°C° 0 mm 3 mps 747 mmHg 85%
    22:00 +18°C° 0 mm 3 mps 747 mmHg 86%
    23:00 +17°C° 0 mm 3 mps 747 mmHg 88%

    26 July, Friday

    Time Temperature Precipitation Wind Pressure Humidity
    00:00 +17°C° 0 mm 3 mps 747 mmHg 89%
    01:00 +17°C° 0 mm 3 mps 747 mmHg 90%
    02:00 +16°C° 0 mm 3 mps 747 mmHg 91%
    03:00 +16°C° 0 mm 3 mps 747 mmHg 92%
    04:00 +16°C° 0 mm 3 mps 747 mmHg 92%
    05:00 +16°C° 0 mm 3 mps 747 mmHg 93%
    06:00 +18°C° 0 mm 3 mps 747 mmHg 90%
    07:00 +19°C° 0 mm 4 mps 747 mmHg 86%
    08:00 +21°C° 0 mm 4 mps 747 mmHg 83%
    09:00 +22°C° 0 mm 4 mps 747 mmHg 77%
    10:00 +23°C° 0 mm 4 mps 747 mmHg 71%
    11:00 +26°C° 0 mm 4 mps 747 mmHg 65%
    12:00 +26°C° 0 mm 4 mps 747 mmHg 64%
    13:00 +26°C° 0 mm 4 mps 747 mmHg 63%
    14:00 +27°C° 0 mm 4 mps 746 mmHg 63%
    15:00 +26°C° 0.1 mm 4 mps 746 mmHg 66%
    16:00 +26°C° 0.1 mm 3 mps 746 mmHg 69%
    17:00 +25°C° 0.1 mm 3 mps 746 mmHg 73%
    18:00 +24°C° 0 mm 3 mps 746 mmHg 76%
    19:00 +23°C° 0 mm 2 mps 746 mmHg 80%
    20:00 +21°C° 0 mm 2 mps 746 mmHg 84%
    21:00 +20°C° 0 mm 2 mps 746 mmHg 85%
    22:00 +19°C° 0 mm 2 mps 745 mmHg 87%
    23:00 +18°C° 0 mm 2 mps 745 mmHg 88%

    27 July, Saturday

    Time Temperature Precipitation Wind Pressure Humidity
    00:00 +18°C° 0 mm 2 mps 745 mmHg 89%
    01:00 +18°C° 0 mm 2 mps 745 mmHg 90%
    02:00 +17°C° 0 mm 2 mps 745 mmHg 91%
    03:00 +17°C° 0 mm 2 mps 745 mmHg 92%
    04:00 +17°C° 0 mm 2 mps 745 mmHg 92%
    05:00 +17°C° 0 mm 2 mps 745 mmHg 93%
    06:00 +18°C° 0 mm 2 mps 745 mmHg 89%
    07:00 +20°C° 0 mm 2 mps 745 mmHg 85%
    08:00 +21°C° 0 mm 2 mps 745 mmHg 81%
    09:00 +23°C° 0 mm 2 mps 745 mmHg 75%
    10:00 +24°C° 0 mm 2 mps 745 mmHg 70%
    11:00 +25°C° 0 mm 2 mps 745 mmHg 65%
    12:00 +26°C° 0 mm 2 mps 745 mmHg 63%
    13:00 +26°C° 0 mm 2 mps 744 mmHg 61%
    14:00 +26°C° 0 mm 1 mps 744 mmHg 58%
    15:00 +26°C° 0 mm 2 mps 744 mmHg 61%
    16:00 +27°C° 0 mm 2 mps 743 mmHg 63%
    17:00 +27°C° 0 mm 2 mps 743 mmHg 66%
    18:00 +25°C° 0 mm 2 mps 743 mmHg 71%
    19:00 +23°C° 0 mm 2 mps 743 mmHg 75%
    20:00 +21°C° 0 mm 2 mps 742 mmHg 80%
    21:00 +20°C° 0 mm 2 mps 742 mmHg 81%
    22:00 +20°C° 0 mm 2 mps 742 mmHg 83%
    23:00 +19°C° 0 mm 3 mps 742 mmHg 84%
    Show more